Weather History for Tacoma Narrows, WA

Change the Weather History Date:

Sunday, October 14, 2012

  Actual Average Record
Temperature  
Mean Temperature 60 °F -  
Max Temperature 63 °F 57 °F 70 °F (2005)
Min Temperature 57 °F 45 °F 42 °F (2002)
Degree Days  
Heating Degree Days 5    
Growing Degree Days 10 (Base 50)    
Moisture  
Dew Point 55 °F    
Average Humidity 85    
Maximum Humidity 97    
Minimum Humidity 72    
Precipitation  
Precipitation 0.79 in - - ()
Sea Level Pressure  
Sea Level Pressure 29.95 in    
Wind  
Wind Speed 9 mph (SSW)    
Max Wind Speed 20 mph    
Max Gust Speed 29 mph    
Visibility 6 miles    
Events Rain    
Averages and records for this station are not official NWS values.
T = Trace of Precipitation, MM = Missing Value Source: NWS Daily Summary

Daily Weather History Graph

Daily Weather History Graph

Search for Another Location

Airport:

Trip Planner

Search our weather history database for the weather conditions in past years. The results will help you decide how hot, cold, wet, or windy it might be!

Date:

Astronomy

Oct. 14, 2012 Rise Set
Actual Time 7:28 AM PDT 6:23 PM PDT
Civil Twilight 6:57 AM PDT 6:54 PM PDT
Nautical Twilight 6:21 AM PDT 7:29 PM PDT
Astronomical Twilight 5:46 AM PDT 8:04 PM PDT
Moon 6:33 AM PDT (10/14) 5:45 PM PDT (10/14)
Length of Visible Light 11h 56m
Length of Day
10h 55m
Waning Crescent, 1% of the Moon is Illuminated
Oct 14
Waning Crescent
Oct 15
New
Oct 21
First Quarter
Oct 29
Full
Nov 6
Last Quarter

Hourly Weather History & Observations

Time (PDT) Temp. Dew Point Humidity Pressure Visibility Wind Dir Wind Speed Gust Speed Precip Events Conditions
12:53 AM 60.1 °F 54.0 °F 80% 30.12 in 10.0 mi SSW 6.9 mph - N/A   Overcast
1:53 AM 59.0 °F 54.0 °F 83% 30.09 in 10.0 mi SSW 4.6 mph - 0.00 in Rain Light Rain
2:53 AM 60.1 °F 54.0 °F 80% 30.09 in 10.0 mi SSW 6.9 mph - 0.00 in   Overcast
3:53 AM 57.9 °F 55.0 °F 90% 30.06 in 10.0 mi West 3.5 mph - N/A   Overcast
4:53 AM 57.9 °F 54.0 °F 87% 30.04 in 10.0 mi SW 3.5 mph - N/A   Overcast
5:53 AM 57.9 °F 54.0 °F 87% 30.03 in 10.0 mi WSW 3.5 mph - N/A   Overcast
6:53 AM 61.0 °F 53.1 °F 75% 30.01 in 10.0 mi SSW 8.1 mph - N/A   Overcast
7:53 AM 62.1 °F 53.1 °F 72% 29.98 in 10.0 mi South 12.7 mph - N/A   Partly Cloudy
7:57 AM 62.6 °F 53.6 °F 72% 29.98 in 10.0 mi South 12.7 mph - N/A   Mostly Cloudy
8:53 AM 63.0 °F 54.0 °F 72% 29.98 in 10.0 mi SSW 13.8 mph 24.2 mph N/A   Mostly Cloudy
9:00 AM 62.6 °F 53.6 °F 72% 29.97 in 10.0 mi SSW 16.1 mph 24.2 mph N/A   Overcast
9:53 AM 63.0 °F 54.0 °F 72% 29.98 in 10.0 mi SSW 13.8 mph 23.0 mph N/A   Overcast
10:53 AM 63.0 °F 55.0 °F 75% 29.97 in 10.0 mi South 19.6 mph 28.8 mph N/A   Mostly Cloudy
11:53 AM 63.0 °F 54.0 °F 72% 29.97 in 10.0 mi South 13.8 mph 26.5 mph N/A   Overcast
12:27 PM 62.6 °F 53.6 °F 72% 29.98 in 10.0 mi South 15.0 mph 24.2 mph N/A   Overcast
12:53 PM 62.6 °F 53.6 °F 72% 29.97 in 10.0 mi South 17.3 mph 24.2 mph N/A Rain Light Rain
1:53 PM 62.1 °F 55.0 °F 78% 29.96 in 6.0 mi South 13.8 mph - 0.02 in Rain Light Rain
2:20 PM 60.8 °F 55.4 °F 82% 29.96 in 4.0 mi South 13.8 mph - 0.02 in Rain Light Rain
2:53 PM 61.0 °F 55.0 °F 81% 29.95 in 4.0 mi South 12.7 mph - 0.04 in Rain Light Rain
3:46 PM 60.8 °F 55.4 °F 82% 29.94 in 2.5 mi SW 6.9 mph - 0.06 in Rain Rain
3:53 PM 60.1 °F 55.9 °F 86% 29.94 in 2.0 mi SW 6.9 mph - 0.08 in Rain Rain
4:53 PM 59.0 °F 57.0 °F 93% 29.93 in 2.0 mi SW 4.6 mph - 0.21 in Rain Rain
5:53 PM 57.9 °F 57.0 °F 97% 29.91 in 2.0 mi SSE 4.6 mph - 0.18 in Rain Light Rain
6:00 PM 59.0 °F 57.2 °F 94% 29.91 in 2.5 mi SSE 4.6 mph - 0.01 in Rain Rain
6:27 PM 59.0 °F 55.4 °F 88% 29.90 in 3.0 mi SSE 5.8 mph - 0.05 in Rain Light Rain
6:53 PM 59.0 °F 55.9 °F 90% 29.90 in 3.0 mi South 4.6 mph - 0.11 in Rain Light Rain
7:53 PM 59.0 °F 55.9 °F 90% 29.89 in 9.0 mi South 12.7 mph 23.0 mph 0.06 in   Overcast
8:46 PM 59.0 °F 55.4 °F 88% 29.89 in 2.5 mi South 16.1 mph - 0.01 in Rain Light Rain
8:53 PM 59.0 °F 55.9 °F 90% 29.89 in 3.0 mi South 13.8 mph 23.0 mph 0.01 in Rain Light Rain
9:38 PM 59.0 °F 55.4 °F 88% 29.90 in 2.0 mi South 13.8 mph - 0.02 in Rain Light Rain
9:46 PM 57.2 °F 55.4 °F 94% 29.90 in 1.8 mi South 12.7 mph - 0.03 in Rain Light Rain
9:53 PM 57.9 °F 55.9 °F 93% 29.90 in 1.8 mi South 13.8 mph - 0.04 in Rain Light Rain
10:04 PM 57.2 °F 55.4 °F 94% 29.90 in 2.5 mi South 13.8 mph 21.9 mph 0.00 in Rain Light Rain
10:11 PM 57.2 °F 55.4 °F 94% 29.90 in 4.0 mi South 13.8 mph - 0.01 in Rain Light Rain
10:21 PM 59.0 °F 55.4 °F 88% 29.90 in 5.0 mi South 13.8 mph - 0.01 in Rain Light Rain
10:28 PM 59.0 °F 55.4 °F 88% 29.90 in 7.0 mi South 13.8 mph 21.9 mph 0.01 in   Overcast
10:53 PM 57.9 °F 55.9 °F 93% 29.88 in 4.0 mi South 11.5 mph - 0.02 in Rain Light Rain
11:02 PM 57.2 °F 55.4 °F 94% 29.90 in 5.0 mi SSW 10.4 mph - 0.00 in Rain Light Rain
11:10 PM 57.2 °F 55.4 °F 94% 29.88 in 7.0 mi South 9.2 mph - 0.01 in Rain Light Rain
11:16 PM 57.2 °F 55.4 °F 94% 29.88 in 4.0 mi South 8.1 mph - 0.02 in Rain Light Rain
11:27 PM 59.0 °F 55.4 °F 88% 29.90 in 10.0 mi SSW 8.1 mph - N/A Rain Light Rain
11:53 PM 59.0 °F 55.9 °F 90% 29.89 in 8.0 mi SSW 6.9 mph - 0.02 in Rain Light Rain